Weather History for Toledo Metcalf, OH

Change the Weather History Date:

Thursday, November 28, 2013

  Actual Average (KTOL) Record (KTOL)
Temperature  
Mean Temperature 23 °F 36 °F  
Max Temperature 28 °F 43 °F 68 °F (1990)
Min Temperature 18 °F 29 °F 6 °F (1955)
Degree Days  
Heating Degree Days 42 29  
Month to date heating degree days 649  
Since 1 July heating degree days 1175  
Cooling Degree Days 0 0  
Month to date cooling degree days 0  
Year to date cooling degree days 793  
Moisture  
Dew Point 14 °F    
Average Humidity 63    
Maximum Humidity 81    
Minimum Humidity 47    
Precipitation  
Precipitation 0.00 in 0.10 in 1.38 in (1973)
Month to date precipitation 2.66  
Year to date precipitation 31.36  
Snow  
Snow 0.00 in 0.20 in - ()
Month to date snowfall 1.7  
Since 1 July snowfall 1.9  
Since 1 September snowfall 1.9  
Snow Depth -    
Sea Level Pressure  
Sea Level Pressure 30.34 in    
Wind  
Wind Speed 6 mph (SW)    
Max Wind Speed 15 mph    
Max Gust Speed 17 mph    
Visibility 10 miles    
Events      
T = Trace of Precipitation, MM = Missing Value Source: NWS Daily Summary

Daily Weather History Graph

Daily Weather History Graph

Search for Another Location

Airport:

Trip Planner

Search our weather history database for the weather conditions in past years. The results will help you decide how hot, cold, wet, or windy it might be!

Date:

Astronomy

Nov. 28, 2013 Rise Set
Actual Time 7:38 AM EST 5:05 PM EST
Civil Twilight 7:07 AM EST 5:36 PM EST
Nautical Twilight 6:33 AM EST 6:10 PM EST
Astronomical Twilight 5:59 AM EST 6:43 PM EST
Moon 2:36 AM EST (11/28) 2:17 PM EST (11/28)
Length of Visible Light 10h 28m
Length of Day
9h 27m
Waning Crescent, 22% of the Moon is Illuminated
Nov 28
Waning Crescent
Dec 2
New
Dec 9
First Quarter
Dec 17
Full
Dec 25
Last Quarter

Hourly Weather History & Observations

Time (EST) Temp. Windchill Dew Point Humidity Pressure Visibility Wind Dir Wind Speed Gust Speed Precip Events Conditions
12:53 AM 21.0 °F 12.4 °F 10.9 °F 65% 30.25 in 10.0 mi West 6.9 mph - N/A   Overcast
1:53 AM 18.0 °F 9.8 °F 9.0 °F 68% 30.26 in 10.0 mi West 5.8 mph - N/A   Clear
2:53 AM 18.0 °F 11.1 °F 10.0 °F 71% 30.28 in 10.0 mi West 4.6 mph - N/A   Scattered Clouds
3:53 AM 19.9 °F 14.9 °F 10.9 °F 68% 30.30 in 10.0 mi WSW 3.5 mph - N/A   Mostly Cloudy
4:53 AM 21.9 °F - 12.0 °F 66% 30.30 in 10.0 mi Calm Calm - N/A   Overcast
5:53 AM 21.0 °F 14.6 °F 14.0 °F 74% 30.32 in 10.0 mi South 4.6 mph - N/A   Overcast
6:53 AM 21.9 °F 14.5 °F 14.0 °F 72% 30.35 in 10.0 mi SSW 5.8 mph - N/A   Overcast
7:53 AM 21.9 °F 17.2 °F 16.0 °F 78% 30.36 in 10.0 mi SE 3.5 mph - 0.00 in   Overcast
8:53 AM 23.0 °F 15.8 °F 18.0 °F 81% 30.38 in 10.0 mi SSE 5.8 mph - N/A   Overcast
9:53 AM 26.1 °F 15.6 °F 19.0 °F 75% 30.37 in 10.0 mi South 11.5 mph - N/A   Overcast
10:53 AM 27.0 °F 17.3 °F 17.1 °F 66% 30.36 in 10.0 mi SSW 10.4 mph - N/A   Overcast
11:53 AM 28.9 °F 18.6 °F 12.9 °F 51% 30.33 in 10.0 mi SW 12.7 mph 17.3 mph N/A   Overcast
12:53 PM 28.9 °F 19.2 °F 10.9 °F 47% 30.30 in 10.0 mi SSW 11.5 mph - N/A   Overcast
1:53 PM 28.9 °F 17.7 °F 12.0 °F 49% 30.30 in 10.0 mi SSW 15.0 mph - N/A   Overcast
2:53 PM 28.9 °F 18.6 °F 12.9 °F 51% 30.29 in 10.0 mi SSW 12.7 mph - N/A   Overcast
3:53 PM 28.9 °F 20.4 °F 12.9 °F 51% 30.31 in 10.0 mi SW 9.2 mph - N/A   Overcast
4:53 PM 28.9 °F 22.8 °F 12.9 °F 51% 30.33 in 10.0 mi SW 5.8 mph - N/A   Overcast
5:53 PM 28.9 °F 23.9 °F 14.0 °F 54% 30.36 in 10.0 mi WSW 4.6 mph - N/A   Overcast
6:53 PM 28.9 °F 25.2 °F 14.0 °F 54% 30.39 in 10.0 mi SW 3.5 mph - N/A   Overcast
7:53 PM 28.0 °F - 16.0 °F 61% 30.40 in 10.0 mi Calm Calm - N/A   Overcast
8:53 PM 28.0 °F - 16.0 °F 61% 30.40 in 10.0 mi Calm Calm - N/A   Overcast
9:53 PM 28.0 °F - 16.0 °F 61% 30.41 in 10.0 mi Calm Calm - N/A   Overcast
10:53 PM 26.1 °F - 15.1 °F 63% 30.43 in 10.0 mi Calm Calm - N/A   Overcast
11:53 PM 26.1 °F 20.5 °F 17.1 °F 69% 30.44 in 10.0 mi South 4.6 mph - N/A   Overcast